Flag for Switzerland Weather past 2 weeks in Schaffhausen, Schaffhausen, Switzerland

Now
56 °F

Cool.


Feels Like: 50 °F
Forecast: 37 / 42 °F
Wind: 28 mph from Southwest

Location: Zurich-Kloten

Current Time: Mar 31, 2015 at 9:45:10 AM

Latest Report: Mar 31, 2015 at 9:00 AM


Visibility: N/A

Pressure: 29.81 "Hg

Humidity: 64%

Dew point: 44 °F

Location of SchaffhausenLocation

Historic Weather in Schaffhausen — Graph

°F

Schaffhausen temperature yesterday

Maximum temperature yesterday: 53 °F (at 3:00 PM)
Minimum temperature yesterday: 48 °F (at 5:00 AM)
Average temperature yesterday: 50 °F

Past Weeks' High & Low Weather Summary

 TemperatureHumidityPressure
High64 °F (Mar 18, 4:00 PM)100% (Mar 20, 5:00 PM)30.34 "Hg (Mar 20, 5:00 PM)
Low29 °F (Mar 28, 5:00 AM)31% (Mar 18, 4:00 PM)29.58 "Hg (Mar 25, 2:00 PM)
Average46 °F72%30.03 "Hg
* Reported Mar 16 7:00 AM — Mar 31 8:00 AM, Schaffhausen, Weather by CustomWeather, © 2015

Note: Actual official high and low records may vary slightly from our data, if they occured in-between our weather recording intervals... More about our weather records

Advertising

Schaffhausen weather history for previous 24 hours

 ConditionsComfort  
Time TempWeatherWind HumidityBarometerVisibility
8:00 AM
Tue, Mar 31
54 °FOvercast.24 mph70%29.81 "Hg31 mi
7:00 AM53 °FCool.21 mph76%29.80 "HgN/A
6:00 AM53 °FCool.25 mph75%29.80 "HgN/A
4:00 AM52 °FCool.18 mph77%29.88 "HgN/A
3:00 AM49 °FCool.13 mph81%29.93 "HgN/A
2:00 AM48 °FLight rain. Overcast.17 mph79%29.96 "Hg19 mi
1:00 AM48 °FCool.8 mph73%29.97 "HgN/A
12:00 AM49 °FCool.9 mph63%30.01 "HgN/A
11:00 PM
Mon, Mar 30
49 °FOvercast.12 mph60%30.02 "Hg19 mi
10:00 PM49 °FCool.10 mph69%30.01 "HgN/A
9:00 PM49 °FCool.12 mph61%30.01 "HgN/A
8:00 PM50 °FOvercast.13 mph56%29.97 "Hg22 mi
7:00 PM50 °FCool.16 mph59%29.95 "HgN/A
6:00 PM51 °FCool.14 mph58%29.92 "HgN/A
5:00 PM52 °FOvercast.15 mph58%29.89 "Hg19 mi
4:00 PM53 °FCool.23 mph57%29.86 "HgN/A
3:00 PM53 °FCool.20 mph66%29.85 "HgN/A
2:00 PM53 °FPartly sunny.24 mph64%29.83 "Hg16 mi
1:00 PM51 °FCool.29 mph78%29.80 "HgN/A
12:00 PM50 °FCool.18 mph80%29.78 "HgN/A
11:00 AM49 °FSprinkles. Low clouds.15 mph87%29.76 "Hg5 mi
10:00 AM49 °FCool.16 mph88%29.73 "HgN/A
9:00 AM49 °FCool.24 mph82%29.70 "HgN/A
Weather by CustomWeather, © 2015

See weather overviewHow to use our weather pages